Year,Month,Day,Hour,Minute,Value (Times are PST for temperature in C)
2018,08,15,00,00,17.70
2018,08,15,00,01,17.70
2018,08,15,00,02,17.70
2018,08,15,00,03,17.70
2018,08,15,00,04,17.70
2018,08,15,00,05,17.70
2018,08,15,00,06,17.70
2018,08,15,00,07,17.70
2018,08,15,00,08,17.70
2018,08,15,00,09,17.70
2018,08,15,00,10,17.70
2018,08,15,00,11,17.70
2018,08,15,00,12,17.70
2018,08,15,00,13,17.70
2018,08,15,00,14,17.70
2018,08,15,00,15,17.70
2018,08,15,00,16,17.70
2018,08,15,00,17,17.70
2018,08,15,00,18,17.70
2018,08,15,00,19,17.70
2018,08,15,00,20,17.70
2018,08,15,00,21,17.80
2018,08,15,00,22,17.80
2018,08,15,00,23,17.80
2018,08,15,00,24,17.80
2018,08,15,00,25,17.80
2018,08,15,00,26,17.80
2018,08,15,00,27,17.80
2018,08,15,00,28,17.80
2018,08,15,00,29,17.80
2018,08,15,00,30,17.80
2018,08,15,00,31,17.90
2018,08,15,00,32,17.90
2018,08,15,00,33,17.90
2018,08,15,00,34,18.00
2018,08,15,00,35,18.00
2018,08,15,00,36,18.00
2018,08,15,00,37,18.00
2018,08,15,00,38,18.00
2018,08,15,00,39,17.90
2018,08,15,00,40,17.90
2018,08,15,00,41,17.90
2018,08,15,00,42,17.90
2018,08,15,00,43,17.90
2018,08,15,00,44,17.90
2018,08,15,00,45,17.80
2018,08,15,00,46,17.80
2018,08,15,00,47,17.80
2018,08,15,00,48,17.80
2018,08,15,00,49,17.80
2018,08,15,00,50,17.80
2018,08,15,00,51,17.80
2018,08,15,00,52,17.80
2018,08,15,00,53,17.80
2018,08,15,00,54,17.80
2018,08,15,00,55,17.90
2018,08,15,00,56,17.90
2018,08,15,00,57,17.90
2018,08,15,00,58,17.90
2018,08,15,00,59,17.90
2018,08,15,01,00,17.90
2018,08,15,01,01,17.90
2018,08,15,01,02,17.90
2018,08,15,01,03,17.90
2018,08,15,01,04,17.90
2018,08,15,01,05,17.90
2018,08,15,01,06,17.90
2018,08,15,01,07,17.90
2018,08,15,01,08,17.90
2018,08,15,01,09,17.90
2018,08,15,01,10,17.90
2018,08,15,01,11,17.90
2018,08,15,01,12,17.90
2018,08,15,01,13,17.90
2018,08,15,01,14,17.90
2018,08,15,01,15,17.90
2018,08,15,01,16,17.90
2018,08,15,01,17,17.90
2018,08,15,01,18,17.90
2018,08,15,01,19,17.90
2018,08,15,01,20,17.90
2018,08,15,01,21,17.90
2018,08,15,01,22,17.90
2018,08,15,01,23,17.90
2018,08,15,01,24,17.90
2018,08,15,01,25,17.90
2018,08,15,01,26,17.90
2018,08,15,01,27,17.80
2018,08,15,01,28,17.80
2018,08,15,01,29,17.80
2018,08,15,01,30,17.70
2018,08,15,01,31,17.70
2018,08,15,01,32,17.70
2018,08,15,01,33,17.70
2018,08,15,01,34,17.70
2018,08,15,01,35,17.70
2018,08,15,01,36,17.70
2018,08,15,01,37,17.70
2018,08,15,01,38,17.70
2018,08,15,01,39,17.70
2018,08,15,01,40,17.70
2018,08,15,01,41,17.70
2018,08,15,01,42,17.70
2018,08,15,01,43,17.70
2018,08,15,01,44,17.70
2018,08,15,01,45,17.80
2018,08,15,01,46,17.80
2018,08,15,01,47,17.70
2018,08,15,01,48,17.70
2018,08,15,01,49,17.70
2018,08,15,01,50,17.70
2018,08,15,01,51,17.70
2018,08,15,01,52,17.70
2018,08,15,01,53,17.70
2018,08,15,01,54,17.60
2018,08,15,01,55,17.50
2018,08,15,01,56,17.50
2018,08,15,01,57,17.50
2018,08,15,01,58,17.50
2018,08,15,01,59,17.40
2018,08,15,02,00,17.40
2018,08,15,02,01,17.40
2018,08,15,02,02,17.30
2018,08,15,02,03,17.30
2018,08,15,02,04,17.30
2018,08,15,02,05,17.30
2018,08,15,02,06,17.30
2018,08,15,02,07,17.30
2018,08,15,02,08,17.30
2018,08,15,02,09,17.30
2018,08,15,02,10,17.30
2018,08,15,02,11,17.30
2018,08,15,02,12,17.30
2018,08,15,02,13,17.30
2018,08,15,02,14,17.30
2018,08,15,02,15,17.30
2018,08,15,02,16,17.30
2018,08,15,02,17,17.20
2018,08,15,02,18,17.20
2018,08,15,02,19,17.20
2018,08,15,02,20,17.20
2018,08,15,02,21,17.20
2018,08,15,02,22,17.30
2018,08,15,02,23,17.30
2018,08,15,02,24,17.30
2018,08,15,02,25,17.30
2018,08,15,02,26,17.30
2018,08,15,02,27,17.30
2018,08,15,02,28,17.30
2018,08,15,02,29,17.30
2018,08,15,02,30,17.30
2018,08,15,02,31,17.30
2018,08,15,02,32,17.30
2018,08,15,02,33,17.30
2018,08,15,02,34,17.20
2018,08,15,02,35,17.20
2018,08,15,02,36,17.20
2018,08,15,02,37,17.20
2018,08,15,02,38,17.20
2018,08,15,02,39,17.20
2018,08,15,02,40,17.20
2018,08,15,02,41,17.20
2018,08,15,02,42,17.20
2018,08,15,02,43,17.20
2018,08,15,02,44,17.20
2018,08,15,02,45,17.20
2018,08,15,02,46,17.20
2018,08,15,02,47,17.20
2018,08,15,02,48,17.20
2018,08,15,02,49,17.20
2018,08,15,02,50,17.20
2018,08,15,02,51,17.20
2018,08,15,02,52,17.20
2018,08,15,02,53,17.20
2018,08,15,02,54,17.10
2018,08,15,02,55,17.10
2018,08,15,02,56,17.10
2018,08,15,02,57,17.10
2018,08,15,02,58,17.10
2018,08,15,02,59,17.00
2018,08,15,03,00,17.00
2018,08,15,03,01,17.00
2018,08,15,03,02,17.00
2018,08,15,03,03,17.00
2018,08,15,03,04,17.00
2018,08,15,03,05,16.90
2018,08,15,03,06,16.90
2018,08,15,03,07,16.90
2018,08,15,03,08,16.90
2018,08,15,03,09,16.90
2018,08,15,03,10,16.90
2018,08,15,03,11,16.90
2018,08,15,03,12,16.90
2018,08,15,03,13,16.90
2018,08,15,03,14,16.90
2018,08,15,03,15,16.90
2018,08,15,03,16,17.00
2018,08,15,03,17,17.00
2018,08,15,03,18,17.00
2018,08,15,03,19,17.00
2018,08,15,03,20,17.00
2018,08,15,03,21,17.00
2018,08,15,03,22,17.00
2018,08,15,03,23,17.00
2018,08,15,03,24,16.90
2018,08,15,03,25,16.90
2018,08,15,03,26,16.90
2018,08,15,03,27,16.90
2018,08,15,03,28,16.80
2018,08,15,03,29,16.80
2018,08,15,03,30,16.80
2018,08,15,03,31,16.90
2018,08,15,03,32,16.90
2018,08,15,03,33,16.90
2018,08,15,03,34,16.90
2018,08,15,03,35,16.90
2018,08,15,03,36,17.00
2018,08,15,03,37,17.00
2018,08,15,03,38,16.90
2018,08,15,03,39,16.90
2018,08,15,03,40,16.90
2018,08,15,03,41,16.90
2018,08,15,03,42,16.90
2018,08,15,03,43,16.90
2018,08,15,03,44,16.90
2018,08,15,03,45,16.80
2018,08,15,03,46,16.80
2018,08,15,03,47,16.80
2018,08,15,03,48,16.80
2018,08,15,03,49,16.70
2018,08,15,03,50,16.70
2018,08,15,03,51,16.70
2018,08,15,03,52,16.70
2018,08,15,03,53,16.70
2018,08,15,03,54,16.70
2018,08,15,03,55,16.60
2018,08,15,03,56,16.60
2018,08,15,03,57,16.60
2018,08,15,03,58,16.60
2018,08,15,03,59,16.60
2018,08,15,04,00,16.60
2018,08,15,04,01,16.60
2018,08,15,04,02,16.60
2018,08,15,04,03,16.60
2018,08,15,04,04,16.60
2018,08,15,04,08,16.60
2018,08,15,04,09,16.60
2018,08,15,04,10,16.60
2018,08,15,04,11,16.60
2018,08,15,04,12,16.60
2018,08,15,04,13,16.60
2018,08,15,04,14,16.60
2018,08,15,04,15,16.60
2018,08,15,04,16,16.60
2018,08,15,04,17,16.60
2018,08,15,04,18,16.60
2018,08,15,04,19,16.60
2018,08,15,04,20,16.60
2018,08,15,04,21,16.60
2018,08,15,04,22,16.50
2018,08,15,04,23,16.50
2018,08,15,04,24,16.50
2018,08,15,04,25,16.50
2018,08,15,04,26,16.50
2018,08,15,04,27,16.50
2018,08,15,04,28,16.50
2018,08,15,04,29,16.50
2018,08,15,04,30,16.40
2018,08,15,04,31,16.40
2018,08,15,04,32,16.40
2018,08,15,04,33,16.40
2018,08,15,04,34,16.40
2018,08,15,04,35,16.40
2018,08,15,04,36,16.30
2018,08,15,04,37,16.30
2018,08,15,04,38,16.20
2018,08,15,04,39,16.20
2018,08,15,04,40,16.20
2018,08,15,04,41,16.20
2018,08,15,04,42,16.10
2018,08,15,04,43,16.10
2018,08,15,04,44,16.10
2018,08,15,04,45,16.10
2018,08,15,04,46,16.10
2018,08,15,04,47,16.10
2018,08,15,04,48,16.10
2018,08,15,04,49,16.10
2018,08,15,04,50,16.10
2018,08,15,04,51,16.10
2018,08,15,04,52,16.00
2018,08,15,04,53,16.00
2018,08,15,04,54,16.00
2018,08,15,04,55,16.00
2018,08,15,04,56,16.00
2018,08,15,04,57,15.90
2018,08,15,04,58,15.90
2018,08,15,04,59,15.90
2018,08,15,05,00,15.90
2018,08,15,05,01,15.80
2018,08,15,05,02,15.80
2018,08,15,05,03,15.80
2018,08,15,05,04,15.70
2018,08,15,05,05,15.70
2018,08,15,05,06,15.70
2018,08,15,05,07,15.70
2018,08,15,05,08,15.70
2018,08,15,05,09,15.80
2018,08,15,05,10,15.80
2018,08,15,05,11,15.80
2018,08,15,05,12,15.70
2018,08,15,05,13,15.70
2018,08,15,05,14,15.70
2018,08,15,05,15,15.60
2018,08,15,05,16,15.60
2018,08,15,05,17,15.60
2018,08,15,05,18,15.60
2018,08,15,05,19,15.60
2018,08,15,05,20,15.60
2018,08,15,05,21,15.60
2018,08,15,05,22,15.50
2018,08,15,05,23,15.50
2018,08,15,05,24,15.50
2018,08,15,05,25,15.40
2018,08,15,05,26,15.40
2018,08,15,05,27,15.40
2018,08,15,05,28,15.40
2018,08,15,05,29,15.40
2018,08,15,05,30,15.40
2018,08,15,05,31,15.40
2018,08,15,05,32,15.40
2018,08,15,05,33,15.40
2018,08,15,05,34,15.40
2018,08,15,05,35,15.40
2018,08,15,05,36,15.40
2018,08,15,05,37,15.40
2018,08,15,05,38,15.40
2018,08,15,05,39,15.40
2018,08,15,05,40,15.40
2018,08,15,05,41,15.40
2018,08,15,05,42,15.40
2018,08,15,05,43,15.30
2018,08,15,05,44,15.30
2018,08,15,05,45,15.30
2018,08,15,05,46,15.30
2018,08,15,05,47,15.30
2018,08,15,05,48,15.30
2018,08,15,05,49,15.20
2018,08,15,05,50,15.20
2018,08,15,05,51,15.10
2018,08,15,05,52,15.10
2018,08,15,05,53,15.10
2018,08,15,05,54,15.00
2018,08,15,05,55,15.00
2018,08,15,05,56,15.00
2018,08,15,05,57,14.90
2018,08,15,05,58,14.90
2018,08,15,05,59,14.90
2018,08,15,06,00,14.90
2018,08,15,06,01,14.90
2018,08,15,06,02,14.90
2018,08,15,06,03,14.90
2018,08,15,06,04,14.90
2018,08,15,06,05,14.80
2018,08,15,06,06,14.80
2018,08,15,06,07,14.80
2018,08,15,06,08,14.80
2018,08,15,06,09,14.80
2018,08,15,06,10,14.90
2018,08,15,06,11,14.90
2018,08,15,06,12,14.90
2018,08,15,06,13,14.90
2018,08,15,06,14,14.80
2018,08,15,06,15,14.80
2018,08,15,06,16,14.80
2018,08,15,06,17,14.80
2018,08,15,06,18,14.80
2018,08,15,06,19,14.80
2018,08,15,06,20,14.80
2018,08,15,06,21,14.80
2018,08,15,06,22,14.80
2018,08,15,06,23,14.80
2018,08,15,06,24,14.80
2018,08,15,06,25,14.80
2018,08,15,06,26,14.80
2018,08,15,06,27,14.80
2018,08,15,06,28,14.80
2018,08,15,06,29,14.80
2018,08,15,06,30,14.80
2018,08,15,06,31,14.80
2018,08,15,06,32,14.80
2018,08,15,06,33,14.80
2018,08,15,06,34,14.80
2018,08,15,06,35,14.80
2018,08,15,06,36,14.80
2018,08,15,06,37,14.80
2018,08,15,06,38,14.80
2018,08,15,06,39,14.80
2018,08,15,06,40,14.80
2018,08,15,06,41,14.90
2018,08,15,06,42,14.90
2018,08,15,06,43,14.90
2018,08,15,06,44,14.90
2018,08,15,06,45,14.90
2018,08,15,06,46,14.90
2018,08,15,06,47,14.90
2018,08,15,06,48,14.90
2018,08,15,06,49,14.90
2018,08,15,06,50,14.90
2018,08,15,06,51,15.00
2018,08,15,06,52,15.00
2018,08,15,06,53,15.00
2018,08,15,06,54,15.10
2018,08,15,06,55,15.10
2018,08,15,06,56,15.10
2018,08,15,06,57,15.10
2018,08,15,06,58,15.10
2018,08,15,06,59,15.20
2018,08,15,07,00,15.20
2018,08,15,07,01,15.20
2018,08,15,07,02,15.20
2018,08,15,07,03,15.20
2018,08,15,07,04,15.30
2018,08,15,07,05,15.30
2018,08,15,07,06,15.30
2018,08,15,07,07,15.30
2018,08,15,07,08,15.30
2018,08,15,07,09,15.40
2018,08,15,07,10,15.40
2018,08,15,07,11,15.40
2018,08,15,07,12,15.40
2018,08,15,07,13,15.40
2018,08,15,07,14,15.50
2018,08,15,07,15,15.50
2018,08,15,07,16,15.50
2018,08,15,07,17,15.60
2018,08,15,07,18,15.60
2018,08,15,07,19,15.60
2018,08,15,07,20,15.60
2018,08,15,07,21,15.60
2018,08,15,07,22,15.60
2018,08,15,07,23,15.70
2018,08,15,07,24,15.70
2018,08,15,07,25,15.70
2018,08,15,07,26,15.70
2018,08,15,07,27,15.70
2018,08,15,07,28,15.80
2018,08,15,07,29,15.80
2018,08,15,07,30,15.80
2018,08,15,07,31,15.80
2018,08,15,07,32,15.90
2018,08,15,07,33,15.90
2018,08,15,07,34,15.90
2018,08,15,07,35,16.00
2018,08,15,07,36,16.00
2018,08,15,07,37,16.10
2018,08,15,07,38,16.10
2018,08,15,07,39,16.10
2018,08,15,07,40,16.20
2018,08,15,07,41,16.20
2018,08,15,07,42,16.20
2018,08,15,07,43,16.30
2018,08,15,07,44,16.30
2018,08,15,07,45,16.30
2018,08,15,07,46,16.40
2018,08,15,07,47,16.40
2018,08,15,07,48,16.50
2018,08,15,07,49,16.50
2018,08,15,07,50,16.60
2018,08,15,07,51,16.70
2018,08,15,07,52,16.70
2018,08,15,07,53,16.80
2018,08,15,07,54,16.90
2018,08,15,07,55,16.90
2018,08,15,07,56,17.00
2018,08,15,07,57,17.10
2018,08,15,07,58,17.20
2018,08,15,07,59,17.20
2018,08,15,08,00,17.30
2018,08,15,08,01,17.40
2018,08,15,08,02,17.40
2018,08,15,08,03,17.50
2018,08,15,08,04,17.60
2018,08,15,08,05,17.70
2018,08,15,08,06,17.70
2018,08,15,08,07,17.80
2018,08,15,08,08,17.90
2018,08,15,08,09,18.00
2018,08,15,08,10,18.00
2018,08,15,08,11,18.10
2018,08,15,08,12,18.20
2018,08,15,08,13,18.30
2018,08,15,08,14,18.30
2018,08,15,08,15,18.40
2018,08,15,08,16,18.50
2018,08,15,08,17,18.60
2018,08,15,08,18,18.70
2018,08,15,08,19,18.70
2018,08,15,08,20,18.80
2018,08,15,08,21,18.90
2018,08,15,08,22,19.00
2018,08,15,08,23,19.00
2018,08,15,08,24,19.10
2018,08,15,08,25,19.20
2018,08,15,08,26,19.20
2018,08,15,08,27,19.30
2018,08,15,08,28,19.30
2018,08,15,08,29,19.40
2018,08,15,08,30,19.50
2018,08,15,08,31,19.50
2018,08,15,08,32,19.60
2018,08,15,08,33,19.70
2018,08,15,08,34,19.80
2018,08,15,08,35,19.80
2018,08,15,08,36,19.90
2018,08,15,08,37,19.90
2018,08,15,08,38,19.90
2018,08,15,08,39,19.90
2018,08,15,08,40,20.00
2018,08,15,08,41,20.00
2018,08,15,08,42,20.10
2018,08,15,08,43,20.10
2018,08,15,08,44,20.10
2018,08,15,08,45,20.20
2018,08,15,08,46,20.20
2018,08,15,08,47,20.20
2018,08,15,08,48,20.30
2018,08,15,08,49,20.30
2018,08,15,08,50,20.30
2018,08,15,08,51,20.40
2018,08,15,08,52,20.40
2018,08,15,08,53,20.50
2018,08,15,08,54,20.60
2018,08,15,08,55,20.60
2018,08,15,08,56,20.70
2018,08,15,08,57,20.70
2018,08,15,08,58,20.80
2018,08,15,08,59,20.80
2018,08,15,09,00,20.90
2018,08,15,09,01,20.90
2018,08,15,09,02,21.00
2018,08,15,09,03,21.10
2018,08,15,09,04,21.20
2018,08,15,09,05,21.30
2018,08,15,09,06,21.30
2018,08,15,09,07,21.30
2018,08,15,09,08,21.30
2018,08,15,09,09,21.30
2018,08,15,09,10,21.30
2018,08,15,09,11,21.20
2018,08,15,09,12,21.20
2018,08,15,09,13,21.10
2018,08,15,09,14,21.10
2018,08,15,09,15,21.10
2018,08,15,09,16,21.00
2018,08,15,09,17,21.00
2018,08,15,09,18,21.00
2018,08,15,09,19,20.90
2018,08,15,09,20,20.90
2018,08,15,09,21,20.90
2018,08,15,09,22,20.90
2018,08,15,09,23,20.90
2018,08,15,09,24,20.90
2018,08,15,09,25,20.90
2018,08,15,09,26,20.90
2018,08,15,09,27,20.90
2018,08,15,09,28,20.90
2018,08,15,09,29,20.90
2018,08,15,09,30,20.90
2018,08,15,09,31,21.00
2018,08,15,09,32,21.00
2018,08,15,09,33,21.10
2018,08,15,09,34,21.10
2018,08,15,09,35,21.10
2018,08,15,09,36,21.10
2018,08,15,09,37,21.10
2018,08,15,09,38,21.10
2018,08,15,09,39,21.20
2018,08,15,09,40,21.10
2018,08,15,09,41,21.10
2018,08,15,09,42,21.10
2018,08,15,09,43,21.10
2018,08,15,09,44,21.10
2018,08,15,09,45,21.10
2018,08,15,09,46,21.10
2018,08,15,09,47,21.10
2018,08,15,09,48,21.10
2018,08,15,09,49,21.10
2018,08,15,09,50,21.10
2018,08,15,09,51,21.10
2018,08,15,09,52,21.10
2018,08,15,09,53,21.10
2018,08,15,09,54,21.20
2018,08,15,09,55,21.20
2018,08,15,09,56,21.30
2018,08,15,09,57,21.30
2018,08,15,09,58,21.20
2018,08,15,09,59,21.20
2018,08,15,10,00,21.10
2018,08,15,10,01,21.00
2018,08,15,10,02,21.00
2018,08,15,10,03,20.90
2018,08,15,10,04,20.90
2018,08,15,10,05,20.90
2018,08,15,10,06,20.90
2018,08,15,10,07,21.00
2018,08,15,10,08,21.10
2018,08,15,10,09,21.20
2018,08,15,10,10,21.20
2018,08,15,10,11,21.30
2018,08,15,10,12,21.30
2018,08,15,10,13,21.40
2018,08,15,10,14,21.40
2018,08,15,10,15,21.40
2018,08,15,10,16,21.40
2018,08,15,10,17,21.40
2018,08,15,10,18,21.40
2018,08,15,10,19,21.40
2018,08,15,10,20,21.40
2018,08,15,10,21,21.30
2018,08,15,10,22,21.30
2018,08,15,10,23,21.30
2018,08,15,10,24,21.30
2018,08,15,10,25,21.40
2018,08,15,10,26,21.40
2018,08,15,10,27,21.50
2018,08,15,10,28,21.60
2018,08,15,10,29,21.60
2018,08,15,10,30,21.60
2018,08,15,10,31,21.60
2018,08,15,10,32,21.60
2018,08,15,10,33,21.50
2018,08,15,10,34,21.50
2018,08,15,10,35,21.40
2018,08,15,10,36,21.40
2018,08,15,10,37,21.40
2018,08,15,10,38,21.40
2018,08,15,10,39,21.40
2018,08,15,10,40,21.30
2018,08,15,10,41,21.40
2018,08,15,10,42,21.40
2018,08,15,10,43,21.40
2018,08,15,10,44,21.50
2018,08,15,10,45,21.50
2018,08,15,10,46,21.60
2018,08,15,10,47,21.70
2018,08,15,10,48,21.80
2018,08,15,10,49,21.80
2018,08,15,10,50,21.90
2018,08,15,10,51,21.90
2018,08,15,10,52,22.00
2018,08,15,10,53,22.10
2018,08,15,10,54,22.20
2018,08,15,10,55,22.20
2018,08,15,10,56,22.20
2018,08,15,10,57,22.20
2018,08,15,10,58,22.20
2018,08,15,10,59,22.30
2018,08,15,11,00,22.40
2018,08,15,11,01,22.50
2018,08,15,11,02,22.60
2018,08,15,11,03,22.60
2018,08,15,11,04,22.70
2018,08,15,11,05,22.80
2018,08,15,11,06,22.90
2018,08,15,11,07,23.00
2018,08,15,11,08,23.10
2018,08,15,11,09,23.20
2018,08,15,11,10,23.30
2018,08,15,11,11,23.30
2018,08,15,11,12,23.40
2018,08,15,11,13,23.40
2018,08,15,11,14,23.40
2018,08,15,11,15,23.40
2018,08,15,11,16,23.50
2018,08,15,11,17,23.50
2018,08,15,11,18,23.60
2018,08,15,11,19,23.60
2018,08,15,11,20,23.60
2018,08,15,11,21,23.60
2018,08,15,11,22,23.50
2018,08,15,11,23,23.40
2018,08,15,11,24,23.30
2018,08,15,11,25,23.20
2018,08,15,11,26,23.20
2018,08,15,11,27,23.20
2018,08,15,11,28,23.20
2018,08,15,11,29,23.20
2018,08,15,11,30,23.20
2018,08,15,11,31,23.30
2018,08,15,11,32,23.30
2018,08,15,11,33,23.40
2018,08,15,11,34,23.40
2018,08,15,11,35,23.40
2018,08,15,11,36,23.50
2018,08,15,11,37,23.60
2018,08,15,11,38,23.60
2018,08,15,11,39,23.60
2018,08,15,11,40,23.70
2018,08,15,11,41,23.70
2018,08,15,11,42,23.60
2018,08,15,11,43,23.60
2018,08,15,11,44,23.70
2018,08,15,11,45,23.70
2018,08,15,11,46,23.80
2018,08,15,11,47,23.90
2018,08,15,11,48,23.90
2018,08,15,11,49,24.00
2018,08,15,11,50,24.00
2018,08,15,11,51,24.10
2018,08,15,11,52,24.10
2018,08,15,11,53,24.10
2018,08,15,11,54,24.20
2018,08,15,11,55,24.30
2018,08,15,11,56,24.30
2018,08,15,11,57,24.40
2018,08,15,11,58,24.40
2018,08,15,11,59,24.50
2018,08,15,12,00,24.50
2018,08,15,12,01,24.50
2018,08,15,12,02,24.50
2018,08,15,12,03,24.60
2018,08,15,12,04,24.60
2018,08,15,12,05,24.60
2018,08,15,12,06,24.60
2018,08,15,12,07,24.70
2018,08,15,12,08,24.70
2018,08,15,12,09,24.70
2018,08,15,12,10,24.70
2018,08,15,12,11,24.70
2018,08,15,12,12,24.70
2018,08,15,12,13,24.70
2018,08,15,12,14,24.60
2018,08,15,12,15,24.60
2018,08,15,12,16,24.60
2018,08,15,12,17,24.50
2018,08,15,12,18,24.40
2018,08,15,12,19,24.20
2018,08,15,12,20,24.10
2018,08,15,12,21,24.00
2018,08,15,12,22,24.00
2018,08,15,12,23,23.90
2018,08,15,12,24,23.90
2018,08,15,12,25,23.90
2018,08,15,12,26,23.90
2018,08,15,12,27,24.00
2018,08,15,12,28,24.00
2018,08,15,12,29,24.00
2018,08,15,12,30,24.10
2018,08,15,12,31,24.10
2018,08,15,12,32,24.20
2018,08,15,12,33,24.20
2018,08,15,12,34,24.10
2018,08,15,12,35,24.00
2018,08,15,12,36,23.90
2018,08,15,12,37,23.80
2018,08,15,12,38,23.80
2018,08,15,12,39,23.70
2018,08,15,12,40,23.70
2018,08,15,12,41,23.70
2018,08,15,12,42,23.70
2018,08,15,12,43,23.60
2018,08,15,12,44,23.60
2018,08,15,12,45,23.60
2018,08,15,12,46,23.50
2018,08,15,12,47,23.40
2018,08,15,12,48,23.40
2018,08,15,12,49,23.40
2018,08,15,12,50,23.30
2018,08,15,12,51,23.30
2018,08,15,12,52,23.30
2018,08,15,12,53,23.30
2018,08,15,12,54,23.40
2018,08,15,12,55,23.40
2018,08,15,12,56,23.40
2018,08,15,12,57,23.40
2018,08,15,12,58,23.40
2018,08,15,12,59,23.40
2018,08,15,13,00,23.40
2018,08,15,13,01,23.50
2018,08,15,13,02,23.50
2018,08,15,13,03,23.60
2018,08,15,13,04,23.60
2018,08,15,13,05,23.70
2018,08,15,13,06,23.80
2018,08,15,13,07,23.90
2018,08,15,13,08,24.00
2018,08,15,13,09,24.10
2018,08,15,13,10,24.10
2018,08,15,13,11,24.10
2018,08,15,13,12,24.20
2018,08,15,13,13,24.20
2018,08,15,13,14,24.30
2018,08,15,13,15,24.40
2018,08,15,13,16,24.50
2018,08,15,13,17,24.70
2018,08,15,13,18,24.80
2018,08,15,13,19,24.80
2018,08,15,13,20,24.90
2018,08,15,13,21,24.90
2018,08,15,13,22,25.00
2018,08,15,13,23,25.00
2018,08,15,13,24,25.10
2018,08,15,13,25,25.10
2018,08,15,13,26,25.20
2018,08,15,13,27,25.20
2018,08,15,13,28,25.20
2018,08,15,13,29,25.30
2018,08,15,13,30,25.30
2018,08,15,13,31,25.40
2018,08,15,13,32,25.40
2018,08,15,13,33,25.40
2018,08,15,13,34,25.40
2018,08,15,13,35,25.40
2018,08,15,13,36,25.40
2018,08,15,13,37,25.40
2018,08,15,13,38,25.40
2018,08,15,13,39,25.40
2018,08,15,13,40,25.30
2018,08,15,13,41,25.30
2018,08,15,13,42,25.30
2018,08,15,13,43,25.30
2018,08,15,13,44,25.30
2018,08,15,13,45,25.30
2018,08,15,13,46,25.20
2018,08,15,13,47,25.20
2018,08,15,13,48,25.20
2018,08,15,13,49,25.20
2018,08,15,13,50,25.20
2018,08,15,13,51,25.20
2018,08,15,13,52,25.20
2018,08,15,13,53,25.20
2018,08,15,13,54,25.20
2018,08,15,13,55,25.20
2018,08,15,13,56,25.20
2018,08,15,13,57,25.20
2018,08,15,13,58,25.20
2018,08,15,13,59,25.20
2018,08,15,14,00,25.20
2018,08,15,14,01,25.10
2018,08,15,14,02,25.10
2018,08,15,14,03,25.10
2018,08,15,14,04,25.10
2018,08,15,14,05,25.00
2018,08,15,14,06,25.00
2018,08,15,14,07,24.90
2018,08,15,14,08,24.90
2018,08,15,14,09,24.90
2018,08,15,14,10,24.90
2018,08,15,14,11,24.90
2018,08,15,14,12,24.90
2018,08,15,14,13,24.90
2018,08,15,14,14,24.90
2018,08,15,14,15,24.90
2018,08,15,14,16,24.90
2018,08,15,14,17,24.90
2018,08,15,14,18,24.90
2018,08,15,14,19,24.90
2018,08,15,14,20,24.90
2018,08,15,14,21,24.90
2018,08,15,14,22,24.90
2018,08,15,14,23,24.90
2018,08,15,14,24,24.80
2018,08,15,14,25,24.80
2018,08,15,14,26,24.80
2018,08,15,14,27,24.90
2018,08,15,14,28,24.90
2018,08,15,14,29,24.90
2018,08,15,14,30,24.90
2018,08,15,14,31,24.90
2018,08,15,14,32,24.90
2018,08,15,14,33,24.90
2018,08,15,14,34,24.90
2018,08,15,14,35,24.90
2018,08,15,14,36,24.90
2018,08,15,14,37,24.90
2018,08,15,14,38,24.90
2018,08,15,14,39,24.90
2018,08,15,14,40,24.90
2018,08,15,14,41,24.90
2018,08,15,14,42,24.90
2018,08,15,14,43,24.90
2018,08,15,14,44,24.90
2018,08,15,14,45,24.90
2018,08,15,14,46,24.90
2018,08,15,14,47,25.00
2018,08,15,14,48,25.00
2018,08,15,14,49,25.00
2018,08,15,14,50,24.90
2018,08,15,14,51,24.90
2018,08,15,14,52,24.90
2018,08,15,14,53,24.80
2018,08,15,14,54,24.80
2018,08,15,14,55,24.80
2018,08,15,14,56,24.80
2018,08,15,14,57,24.80
2018,08,15,14,58,24.80
2018,08,15,14,59,24.80
2018,08,15,15,00,24.80
2018,08,15,15,01,24.80
2018,08,15,15,02,24.80
2018,08,15,15,03,24.90
2018,08,15,15,04,24.90
2018,08,15,15,05,24.90
2018,08,15,15,06,24.80
2018,08,15,15,07,24.80
2018,08,15,15,08,24.80
2018,08,15,15,09,24.80
2018,08,15,15,10,24.80
2018,08,15,15,11,24.80
2018,08,15,15,12,24.80
2018,08,15,15,13,24.80
2018,08,15,15,14,24.80
2018,08,15,15,15,24.70
2018,08,15,15,16,24.70
2018,08,15,15,17,24.70
2018,08,15,15,18,24.70
2018,08,15,15,19,24.80
2018,08,15,15,20,24.80
2018,08,15,15,21,24.80
2018,08,15,15,22,24.80
2018,08,15,15,23,24.80
2018,08,15,15,24,24.90
2018,08,15,15,25,24.90
2018,08,15,15,26,24.90
2018,08,15,15,27,25.00
2018,08,15,15,28,25.10
2018,08,15,15,29,25.10
2018,08,15,15,30,25.20
2018,08,15,15,31,25.20
2018,08,15,15,32,25.20
2018,08,15,15,33,25.30
2018,08,15,15,34,25.30
2018,08,15,15,35,25.30
2018,08,15,15,36,25.30
2018,08,15,15,37,25.30
2018,08,15,15,38,25.30
2018,08,15,15,39,25.20
2018,08,15,15,40,25.20
2018,08,15,15,41,25.20
2018,08,15,15,42,25.20
2018,08,15,15,43,25.20
2018,08,15,15,44,25.10
2018,08,15,15,45,25.10
2018,08,15,15,46,25.10
2018,08,15,15,47,25.10
2018,08,15,15,48,25.10
2018,08,15,15,49,25.10
2018,08,15,15,50,25.10
2018,08,15,15,51,25.10
2018,08,15,15,52,25.10
2018,08,15,15,53,25.10
2018,08,15,15,54,25.00
2018,08,15,15,55,25.00
2018,08,15,15,56,24.90
2018,08,15,15,57,24.90
2018,08,15,15,58,24.90
2018,08,15,15,59,25.00
2018,08,15,16,00,24.90
2018,08,15,16,01,24.90
2018,08,15,16,02,24.90
2018,08,15,16,03,24.90
2018,08,15,16,04,24.90
2018,08,15,16,05,24.80
2018,08,15,16,06,24.80
2018,08,15,16,07,24.80
2018,08,15,16,08,24.80
2018,08,15,16,09,24.80
2018,08,15,16,10,24.90
2018,08,15,16,11,24.90
2018,08,15,16,12,24.90
2018,08,15,16,13,24.90
2018,08,15,16,14,24.90
2018,08,15,16,15,24.90
2018,08,15,16,16,24.90
2018,08,15,16,17,24.90
2018,08,15,16,18,24.80
2018,08,15,16,19,24.80
2018,08,15,16,20,24.80
2018,08,15,16,21,24.80
2018,08,15,16,22,24.80
2018,08,15,16,23,24.80
2018,08,15,16,24,24.80
2018,08,15,16,25,24.80
2018,08,15,16,26,24.90
2018,08,15,16,27,24.90
2018,08,15,16,28,24.90
2018,08,15,16,29,24.90
2018,08,15,16,30,24.90
2018,08,15,16,31,24.90
2018,08,15,16,32,24.90
2018,08,15,16,33,24.90
2018,08,15,16,34,24.90
2018,08,15,16,35,25.00
2018,08,15,16,36,25.00
2018,08,15,16,37,25.00
2018,08,15,16,38,25.10
2018,08,15,16,39,25.10
2018,08,15,16,40,25.20
2018,08,15,16,41,25.20
2018,08,15,16,42,25.30
2018,08,15,16,43,25.30
2018,08,15,16,44,25.30
2018,08,15,16,45,25.40
2018,08,15,16,46,25.40
2018,08,15,16,47,25.40
2018,08,15,16,48,25.50
2018,08,15,16,49,25.50
2018,08,15,16,50,25.60
2018,08,15,16,51,25.60
2018,08,15,16,52,25.60
2018,08,15,16,53,25.60
2018,08,15,16,54,25.60
2018,08,15,16,55,25.60
2018,08,15,16,56,25.70
2018,08,15,16,57,25.70
2018,08,15,16,58,25.70
2018,08,15,16,59,25.80
2018,08,15,17,00,25.80
2018,08,15,17,01,25.80
2018,08,15,17,02,25.90
2018,08,15,17,03,25.90
2018,08,15,17,04,25.90
2018,08,15,17,05,25.90
2018,08,15,17,06,25.90
2018,08,15,17,07,25.90
2018,08,15,17,08,26.00
2018,08,15,17,09,26.00
2018,08,15,17,10,26.00
2018,08,15,17,11,26.00
2018,08,15,17,12,26.00
2018,08,15,17,13,26.00
2018,08,15,17,14,26.00
2018,08,15,17,15,26.00
2018,08,15,17,16,25.90
2018,08,15,17,17,25.90
2018,08,15,17,18,25.90
2018,08,15,17,19,25.80
2018,08,15,17,20,25.80
2018,08,15,17,21,25.80
2018,08,15,17,22,25.70